Location: Wismar
(53.8979°N, 11.4516°E)
Time: 05:51:34
(UTC+02:00)

ISS - Visible Passes

Search period start: 29 March 2020 00:00
Search period end: 08 April 2020 01:00
Orbit: 417 x 423 km, 51.6° (Epoch: 29 March)

Date Brightness Start Highest point End Pass type
(mag) Time Alt. Az. Time Alt. Az. Time Alt. Az.
29 Mar -2.9 21:44:42 10° W 21:47:51 36° SSW 21:48:12 35° S visible
30 Mar -3.1 20:57:21 10° W 21:00:34 44° SSW 21:02:43 18° SE visible
30 Mar -1.2 22:34:36 10° WSW 22:35:41 14° WSW 22:35:41 14° WSW visible
31 Mar -2.1 21:46:58 10° W 21:49:39 22° SSW 21:50:14 21° SSW visible
01 Apr -2.3 20:59:28 10° W 21:02:25 29° SSW 21:04:47 14° SSE visible
02 Apr -1.2 21:49:55 10° WSW 21:51:15 12° SW 21:52:21 11° SSW visible
03 Apr -1.4 21:01:52 10° WSW 21:04:05 17° SW 21:06:17 10° S visible
